Location: Leipzig
(51.3397°N, 12.3731°E)
Time: 19:50:13
(UTC+01:00)

ISS - Pass Details

Date: 21 October 2025
Orbit: 414 x 421 km, 51.6° (Epoch: 07 November)

Event Time Altitude Azimuth Distance (km) Brightness Sun altitude
Exits shadow 06:21:44 21° 235° (SW) 1,015 -2.3 -13.6°
Maximum altitude 06:23:49 60° 161° (SSE) 488 -3.4 -13.3°
Drops below altitude 10° 06:27:10 10° 80° (E) 1,509 0.5 -12.8°
Sets 06:29:17 0° 77° (ENE) 2,376 1.8 -12.4°
